CW6344 Lexington Park MD US current weather conditions

sailwx.info

Wind from 318

Air temperature 23.3° C
Dewpoint 22.8° C

Last reported at 2020-Aug-13 07:45 UTC.
Time now 2020-Aug-13 08:47 UTC

Location: N 38°18' W 076°29'.
View on Google Maps.

See reports from other nearby stations

  
Tides and Currents Weather Stations Pressure Air Temp Water Temp Dewpoint Dewpoint Depression Visibility Wind Speed Wind Dir Waves Ship Positions
date/time (UTC)wind fromknots sea level pressurealtimeterstation pressurevisibilityair tempwater tempwave heightnotes
2020-Aug-13 07:45 318 23.3
2020-Aug-13 07:35 318 23.3
2020-Aug-13 07:25 318 23.3
2020-Aug-13 06:45 318 23.3
2020-Aug-13 06:35 318 23.3
2020-Aug-13 06:05 318 23.9
2020-Aug-13 05:55 318 23.9
2020-Aug-13 05:45 318 23.9
2020-Aug-13 05:35 318 23.9
2020-Aug-13 05:05 318 23.9
2020-Aug-13 04:45 318 23.9
2020-Aug-13 04:35 318 23.9
2020-Aug-13 04:25 318 23.9
2020-Aug-13 04:05 318 23.9
2020-Aug-13 03:55 318 23.9
2020-Aug-13 03:45 318 23.9
2020-Aug-13 03:25 318 23.9
2020-Aug-13 02:55 318 23.9
2020-Aug-13 02:45 318 23.9
2020-Aug-13 02:25 318 24.4
2020-Aug-13 02:15 318 24.4
2020-Aug-13 02:05 318 24.4
2020-Aug-13 01:55 318 24.4
2020-Aug-13 01:35 312 24.4
2020-Aug-13 01:15 312 25.0
2020-Aug-13 01:05 257 25.0
2020-Aug-13 00:55 312 25.6
2020-Aug-13 00:45 067 25.6
2020-Aug-13 00:35 067 25.6
2020-Aug-13 00:25 067 25.6
2020-Aug-13 00:05 067 26.1
2020-Aug-12 23:45 067 26.7
2020-Aug-12 23:35 067 26.7
2020-Aug-12 23:15 067 26.7
2020-Aug-12 23:05 327 26.7
2020-Aug-12 22:55 327 27.2
2020-Aug-12 22:15 327 27.8
2020-Aug-12 22:05 327 27.8
2020-Aug-12 21:45 327 27.2
2020-Aug-12 21:25 326 27.2
2020-Aug-12 20:55 326 27.2
2020-Aug-12 20:45 326 27.2
2020-Aug-12 20:25 247 27.2
2020-Aug-12 20:15 247 27.2
2020-Aug-12 19:55 247 27.2
2020-Aug-12 19:45 249 27.2
2020-Aug-12 19:35 011 27.2
2020-Aug-12 19:25 013 27.2
2020-Aug-12 18:35 028 28.3
2020-Aug-12 18:25 026 28.3
2020-Aug-12 18:15 026 27.8
2020-Aug-12 18:05 017 28.3
2020-Aug-12 17:55 017 28.9
2020-Aug-12 17:45 005 29.4
2020-Aug-12 17:05 005 28.3
2020-Aug-12 16:55 057 28.9
2020-Aug-12 16:15 057 27.8
2020-Aug-12 16:05 057 27.2
2020-Aug-12 15:55 057 27.2
2020-Aug-12 15:45 057 0 gusting 1 27.8
2020-Aug-12 15:15 059 0 gusting 1 28.9
2020-Aug-12 14:55 109 29.4
2020-Aug-12 14:25 115 30.0
2020-Aug-12 14:15 168 30.0
2020-Aug-12 13:45 142 28.9
2020-Aug-12 13:25 202 0 gusting 0 28.3
2020-Aug-12 12:55 203 26.7
2020-Aug-12 12:45 203 26.7
2020-Aug-12 12:25 203 25.6
2020-Aug-12 11:45 202 25.0
2020-Aug-12 11:35 202 25.0
2020-Aug-12 11:15 026 24.4
2020-Aug-12 11:05 026 24.4
2020-Aug-12 10:55 026 24.4
2020-Aug-12 10:45 026 24.4
2020-Aug-12 10:25 026 24.4
2020-Aug-12 10:05 288 24.4
2020-Aug-12 09:55 288 24.4
2020-Aug-12 09:35 288 24.4
2020-Aug-12 09:15 288 24.4
2020-Aug-12 08:55 288 24.4
2020-Aug-12 08:35 288 24.4
2020-Aug-12 08:25 292 24.4
2020-Aug-12 07:55 262 24.4
2020-Aug-12 07:25 262 25.0
2020-Aug-12 07:15 262 25.0
2020-Aug-12 06:55 262 25.0
2020-Aug-12 06:45 262 25.0
2020-Aug-12 06:35 262 25.0
2020-Aug-12 06:25 262 25.0
2020-Aug-12 06:15 267 25.6
2020-Aug-12 05:55 267 25.6
2020-Aug-12 05:45 267 25.6
2020-Aug-12 05:35 247 25.6
2020-Aug-12 05:15 325 25.6
2020-Aug-12 05:05 325 26.1
2020-Aug-12 04:45 325 26.1
2020-Aug-12 04:25 267 26.1
2020-Aug-12 04:15 267 26.1
2020-Aug-12 03:35 298 26.7
2020-Aug-12 03:15 283 26.7
2020-Aug-12 03:05 283 26.7
2020-Aug-12 02:55 300 26.7
2020-Aug-12 02:45 307 26.7
2020-Aug-12 02:25 307 26.7
2020-Aug-12 02:05 303 26.7
2020-Aug-12 01:55 306 26.7
2020-Aug-12 01:45 313 26.7
2020-Aug-12 01:05 313 26.7
2020-Aug-12 00:35 313 27.2
2020-Aug-12 00:25 313 27.2
2020-Aug-11 23:35 313 28.3
2020-Aug-11 23:15 313 28.9
2020-Aug-11 23:05 313 28.9
2020-Aug-11 22:55 310 30.0
2020-Aug-11 22:25 262 30.6
2020-Aug-11 22:15 292 31.1
2020-Aug-11 21:15 069 0 gusting 0 31.1
2020-Aug-11 20:55 278 31.1
2020-Aug-11 19:35 244 31.7
2020-Aug-11 19:25 306 31.1
2020-Aug-11 18:55 272 31.1
2020-Aug-11 18:15 292 31.1
2020-Aug-11 17:55 202 31.1
2020-Aug-11 17:35 285 31.1
2020-Aug-11 17:25 273 30.6
2020-Aug-11 17:05 330 30.6
2020-Aug-11 16:55 211 0 gusting 1 30.6
2020-Aug-11 16:45 296 0 gusting 0 30.6
2020-Aug-11 16:35 159 30.0
2020-Aug-11 16:15 263 0 gusting 1 30.0
2020-Aug-11 14:25 292 28.3
2020-Aug-11 14:05 233 27.8
2020-Aug-11 13:45 306 27.2
2020-Aug-11 13:25 279 26.7
2020-Aug-11 12:55 296 0 gusting 0 25.0
2020-Aug-11 12:35 323 0 gusting 1 24.4
2020-Aug-11 12:05 250 1 gusting 1 23.9
2020-Aug-11 11:45 269 23.3
2020-Aug-11 11:35 269 23.3
2020-Aug-11 11:25 269 23.3
2020-Aug-11 11:15 269 22.8
2020-Aug-11 11:05 269 22.8
2020-Aug-11 10:45 269 22.8
2020-Aug-11 10:35 269 22.8
2020-Aug-11 10:25 269 22.8
2020-Aug-11 10:15 269 23.3
2020-Aug-11 09:55 300 23.3
2020-Aug-11 09:45 203 23.3
2020-Aug-11 09:25 263 23.3
2020-Aug-11 08:35 277 0 gusting 0 23.9
2020-Aug-11 08:25 273 23.9